TimeAKDT,TemperatureF,Dew PointF,Humidity,Sea Level PressureIn,VisibilityMPH,Wind Direction,Wind SpeedMPH,Gust SpeedMPH,PrecipitationIn,Events,Conditions,WindDirDegrees,DateUTC
12:16 AM,62.6,53.6,72,29.80,9.0,Calm,Calm,-,N/A,,Overcast,0,2013-06-27 08:16:00
12:36 AM,60.8,53.6,77,29.80,10.0,Calm,Calm,-,N/A,,Overcast,0,2013-06-27 08:36:00
12:56 AM,59.0,51.8,77,29.80,10.0,Calm,Calm,-,N/A,,Scattered Clouds,0,2013-06-27 08:56:00
1:16 AM,57.2,51.8,82,29.80,10.0,Calm,Calm,-,N/A,,Partly Cloudy,0,2013-06-27 09:16:00
1:36 AM,57.2,51.8,82,29.80,10.0,Calm,Calm,-,N/A,,Clear,0,2013-06-27 09:36:00
1:56 AM,55.4,51.8,88,29.81,10.0,Calm,Calm,-,N/A,,Clear,0,2013-06-27 09:56:00
2:16 AM,55.4,51.8,88,29.81,10.0,Calm,Calm,-,N/A,,Clear,0,2013-06-27 10:16:00
2:36 AM,55.4,51.8,88,29.81,10.0,Calm,Calm,-,N/A,,Clear,0,2013-06-27 10:36:00
2:56 AM,55.4,51.8,88,29.81,10.0,Calm,Calm,-,N/A,,Clear,0,2013-06-27 10:56:00
3:16 AM,53.6,50.0,88,29.81,10.0,Calm,Calm,-,N/A,,Clear,0,2013-06-27 11:16:00
3:36 AM,55.4,51.8,88,29.82,10.0,Calm,Calm,-,N/A,,Partly Cloudy,0,2013-06-27 11:36:00
3:56 AM,53.6,50.0,88,29.82,10.0,Calm,Calm,-,N/A,,Scattered Clouds,0,2013-06-27 11:56:00
4:16 AM,53.6,50.0,88,29.82,10.0,Calm,Calm,-,N/A,,Clear,0,2013-06-27 12:16:00
4:36 AM,53.6,50.0,88,29.83,10.0,Calm,Calm,-,N/A,,Mostly Cloudy,0,2013-06-27 12:36:00
4:56 AM,53.6,50.0,88,29.83,10.0,Calm,Calm,-,N/A,,Overcast,0,2013-06-27 12:56:00
5:16 AM,53.6,51.8,94,29.84,10.0,Calm,Calm,-,N/A,,Overcast,0,2013-06-27 13:16:00
5:36 AM,55.4,51.8,88,29.84,10.0,Calm,Calm,-,N/A,,Overcast,0,2013-06-27 13:36:00
5:56 AM,55.4,51.8,88,29.84,10.0,Calm,Calm,-,N/A,,Mostly Cloudy,0,2013-06-27 13:56:00
6:16 AM,55.4,51.8,88,29.84,10.0,Calm,Calm,-,N/A,,Partly Cloudy,0,2013-06-27 14:16:00
6:36 AM,55.4,51.8,88,29.85,10.0,Calm,Calm,-,N/A,,Clear,0,2013-06-27 14:36:00
6:56 AM,55.4,53.6,94,29.85,10.0,SE,3.5,-,N/A,,Scattered Clouds,140,2013-06-27 14:56:00
7:16 AM,57.2,53.6,88,29.85,10.0,Calm,Calm,-,N/A,,Mostly Cloudy,0,2013-06-27 15:16:00
7:36 AM,57.2,53.6,88,29.86,10.0,Calm,Calm,-,N/A,,Overcast,0,2013-06-27 15:36:00
7:56 AM,57.2,53.6,88,29.86,10.0,SW,4.6,-,N/A,,Overcast,230,2013-06-27 15:56:00
8:16 AM,57.2,51.8,82,29.87,10.0,South,4.6,-,N/A,,Overcast,190,2013-06-27 16:16:00
8:36 AM,57.2,48.2,72,29.87,10.0,SSW,5.8,-,N/A,,Overcast,210,2013-06-27 16:36:00
8:56 AM,57.2,48.2,72,29.88,10.0,SW,5.8,-,N/A,,Overcast,230,2013-06-27 16:56:00
9:16 AM,57.2,48.2,72,29.89,10.0,West,3.5,-,N/A,,Overcast,260,2013-06-27 17:16:00
9:36 AM,57.2,48.2,72,29.90,10.0,SW,5.8,-,N/A,,Overcast,230,2013-06-27 17:36:00
9:56 AM,57.2,48.2,72,29.90,10.0,SW,5.8,-,N/A,,Overcast,220,2013-06-27 17:56:00
10:16 AM,57.2,48.2,72,29.90,10.0,SW,8.1,-,N/A,,Overcast,230,2013-06-27 18:16:00
10:36 AM,57.2,48.2,72,29.91,10.0,SW,4.6,-,N/A,,Overcast,230,2013-06-27 18:36:00
10:56 AM,59.0,48.2,67,29.92,10.0,SSW,6.9,-,N/A,,Overcast,200,2013-06-27 18:56:00
11:16 AM,59.0,46.4,63,29.92,10.0,South,6.9,-,N/A,,Overcast,190,2013-06-27 19:16:00
11:36 AM,60.8,46.4,59,29.92,10.0,SW,6.9,-,N/A,,Overcast,230,2013-06-27 19:36:00
11:56 AM,60.8,46.4,59,29.93,10.0,WSW,4.6,-,N/A,,Overcast,240,2013-06-27 19:56:00
12:16 PM,62.6,48.2,59,29.93,10.0,West,6.9,-,N/A,,Overcast,260,2013-06-27 20:16:00
12:36 PM,62.6,44.6,52,29.93,10.0,WNW,3.5,-,N/A,,Overcast,290,2013-06-27 20:36:00
12:56 PM,62.6,46.4,55,29.94,10.0,SW,6.9,-,N/A,,Overcast,220,2013-06-27 20:56:00
1:16 PM,62.6,46.4,55,29.94,10.0,SW,6.9,-,N/A,,Scattered Clouds,230,2013-06-27 21:16:00
1:36 PM,64.4,48.2,56,29.94,10.0,Calm,Calm,-,N/A,,Mostly Cloudy,0,2013-06-27 21:36:00
1:56 PM,66.2,46.4,49,29.94,10.0,WNW,8.1,-,N/A,,Mostly Cloudy,290,2013-06-27 21:56:00
2:16 PM,66.2,48.2,52,29.94,10.0,South,8.1,-,N/A,,Scattered Clouds,190,2013-06-27 22:16:00
2:36 PM,68.0,48.2,49,29.94,10.0,WSW,8.1,-,N/A,,Scattered Clouds,250,2013-06-27 22:36:00
2:56 PM,66.2,46.4,49,29.94,10.0,SW,10.4,18.4,N/A,,Scattered Clouds,230,2013-06-27 22:56:00
3:16 PM,66.2,46.4,49,29.95,10.0,SSW,10.4,-,N/A,,Partly Cloudy,200,2013-06-27 23:16:00
3:36 PM,66.2,46.4,49,29.95,10.0,SW,10.4,20.7,N/A,,Partly Cloudy,230,2013-06-27 23:36:00
3:56 PM,66.2,46.4,49,29.95,10.0,SW,9.2,16.1,N/A,,Clear,220,2013-06-27 23:56:00
4:16 PM,64.4,46.4,52,29.96,10.0,WSW,8.1,-,N/A,,Scattered Clouds,240,2013-06-28 00:16:00
4:36 PM,66.2,46.4,49,29.96,10.0,SW,11.5,19.6,N/A,,Mostly Cloudy,220,2013-06-28 00:36:00
4:56 PM,66.2,46.4,49,29.97,10.0,SW,9.2,19.6,N/A,,Scattered Clouds,220,2013-06-28 00:56:00
5:16 PM,66.2,46.4,49,29.97,10.0,SW,11.5,18.4,N/A,,Scattered Clouds,230,2013-06-28 01:16:00
5:36 PM,66.2,46.4,49,29.97,10.0,SW,10.4,17.3,N/A,,Mostly Cloudy,230,2013-06-28 01:36:00
5:56 PM,66.2,44.6,46,29.97,10.0,SW,11.5,17.3,N/A,,Mostly Cloudy,230,2013-06-28 01:56:00
6:16 PM,68.0,44.6,43,29.97,10.0,SW,10.4,18.4,N/A,,Mostly Cloudy,230,2013-06-28 02:16:00
6:36 PM,68.0,44.6,43,29.97,10.0,SW,10.4,18.4,N/A,,Scattered Clouds,230,2013-06-28 02:36:00
6:56 PM,66.2,44.6,46,29.97,10.0,SW,9.2,-,N/A,,Scattered Clouds,220,2013-06-28 02:56:00
7:16 PM,66.2,44.6,46,29.97,10.0,SW,10.4,-,N/A,,Partly Cloudy,230,2013-06-28 03:16:00
7:36 PM,66.2,42.8,43,29.97,10.0,SW,8.1,-,N/A,,Scattered Clouds,220,2013-06-28 03:36:00
7:56 PM,66.2,42.8,43,29.97,10.0,SSW,6.9,-,N/A,,Mostly Cloudy,210,2013-06-28 03:56:00
8:16 PM,66.2,44.6,46,29.96,10.0,SSW,4.6,-,N/A,,Scattered Clouds,200,2013-06-28 04:16:00
8:36 PM,66.2,42.8,43,29.96,10.0,SSW,8.1,-,N/A,,Partly Cloudy,210,2013-06-28 04:36:00
8:56 PM,64.4,44.6,49,29.97,10.0,SSW,8.1,-,N/A,,Mostly Cloudy,200,2013-06-28 04:56:00
9:16 PM,64.4,44.6,49,29.97,10.0,South,5.8,-,N/A,,Mostly Cloudy,190,2013-06-28 05:16:00
9:36 PM,64.4,44.6,49,29.97,10.0,SSW,4.6,-,N/A,,Mostly Cloudy,210,2013-06-28 05:36:00
9:56 PM,64.4,44.6,49,29.97,10.0,SSW,6.9,-,N/A,,Overcast,210,2013-06-28 05:56:00
10:36 PM,64.4,44.6,49,29.97,10.0,SW,5.8,-,N/A,,Overcast,220,2013-06-28 06:36:00
10:56 PM,62.6,44.6,52,29.98,10.0,SW,3.5,-,N/A,,Overcast,220,2013-06-28 06:56:00
11:16 PM,62.6,44.6,52,29.98,10.0,SW,8.1,-,N/A,,Overcast,230,2013-06-28 07:16:00
11:36 PM,62.6,44.6,52,29.98,10.0,WSW,8.1,-,N/A,,Mostly Cloudy,250,2013-06-28 07:36:00
11:56 PM,60.8,42.8,52,29.99,10.0,WSW,5.8,-,N/A,,Partly Cloudy,240,2013-06-28 07:56:00